Location: Seattle
(47.6060°N, 122.3310°W)
Time: 08:09:12
(UTC-07:00)

ISS - Visible Passes

Search period start: 30 July 2014 00:00
Search period end: 09 August 2014 00:00
Orbit: 411 x 419 km, 51.6° (Epoch: 30 July)

Date Brightness Start Highest point End Pass type
(mag) Time Alt. Az. Time Alt. Az. Time Alt. Az.
30 Jul -1.5 01:29:54 28° NE 01:29:54 28° NE 01:31:39 10° ENE visible
30 Jul -1.9 03:02:45 14° WNW 03:05:22 39° N 03:08:34 10° ENE visible
30 Jul -3.0 04:39:01 10° WNW 04:42:23 74° NNE 04:45:45 10° ESE visible
31 Jul -0.3 00:42:46 10° ENE 00:42:46 10° ENE 00:42:49 10° ENE visible
31 Jul -1.9 02:15:38 34° NW 02:16:25 40° N 02:19:38 10° ENE visible
31 Jul -2.6 03:50:11 10° WNW 03:53:30 56° NNE 03:56:50 10° E visible
01 Aug -1.5 01:28:37 31° NE 01:28:37 31° NE 01:30:43 10° ENE visible
01 Aug -2.2 03:01:30 11° WNW 03:04:35 46° N 03:07:51 10° E visible
01 Aug -3.2 04:38:05 10° WNW 04:41:24 58° SSW 04:44:42 10° SE visible
02 Aug -2.0 02:14:51 34° NNW 02:15:39 41° N 02:18:51 10° ENE visible
02 Aug -3.4 03:49:13 10° WNW 03:52:35 85° SSW 03:55:57 10° ESE visible
02 Aug -2.4 22:10:13 10° SSW 22:13:06 27° SE 22:14:16 22° ESE visible
02 Aug -1.1 23:46:18 10° WSW 23:47:24 19° W 23:47:24 19° W visible
03 Aug -0.5 01:29:19 14° ENE 01:29:19 14° ENE 01:29:52 10° ENE visible
03 Aug -3.0 03:02:22 33° NW 03:03:43 69° NNE 03:07:04 10° ESE visible
03 Aug -2.3 04:37:21 10° W 04:40:13 26° SW 04:43:05 10° SSE visible
03 Aug -1.7 21:22:05 10° S 21:24:25 18° SE 21:26:45 10° E visible
03 Aug -3.4 22:57:24 10° WSW 23:00:45 89° SSE 23:02:56 20° ENE visible
04 Aug -1.0 00:34:30 10° WNW 00:35:54 21° WNW 00:35:54 21° WNW visible
04 Aug -2.4 03:52:25 32° S 03:52:25 32° S 03:54:39 10° SE visible
04 Aug -3.3 22:08:37 10° SW 22:11:54 60° SSE 22:15:13 10° ENE visible
04 Aug -2.2 23:45:29 10° W 23:48:43 45° N 23:49:34 36° NNE visible
05 Aug -2.8 21:19:58 10° SW 21:23:06 39° SE 21:26:15 10° ENE visible
05 Aug -2.6 22:56:28 10° W 22:59:46 54° NNW 23:02:38 13° ENE visible
06 Aug -1.2 00:33:39 10° WNW 00:35:29 26° NW 00:35:29 26° NW visible
06 Aug -3.0 22:07:30 10° WSW 22:10:49 71° NNW 22:14:10 10° ENE visible
06 Aug -1.9 23:44:40 10° WNW 23:47:51 39° N 23:48:20 37° NNE visible
07 Aug -3.3 21:18:35 10° WSW 21:21:55 83° SSE 21:25:16 10° ENE visible
07 Aug -2.0 22:55:39 10° WNW 22:58:50 41° N 23:01:06 17° ENE visible
08 Aug -0.9 00:32:39 10° WNW 00:33:56 21° NW 00:33:56 21° NW visible
08 Aug -2.2 22:06:36 10° W 22:09:50 46° NNW 22:13:06 10° ENE visible
08 Aug -2.1 23:43:43 10° WNW 23:46:39 42° N 23:46:39 42° N visible
